Time,TemperatureF,DewpointF,PressureIn,WindDirection,WindDirectionDegrees,WindSpeedMPH,WindSpeedGustMPH,Humidity,HourlyPrecipIn,Conditions,Clouds,dailyrainin,SoftwareType,DateUTC
2013-05-04 00:00:00,42.3,23.5,30.74,NE,45,0.0,2.0,47,0.00,,,0.00,meteohub,2013-05-04 06:00:00,
2013-05-04 00:05:00,41.0,23.4,30.74,NNW,338,2.0,2.0,49,0.00,,,0.00,meteohub,2013-05-04 06:05:00,
2013-05-04 00:10:00,39.9,22.3,30.74,NNW,338,1.0,2.0,49,0.00,,,0.00,meteohub,2013-05-04 06:10:00,
2013-05-04 00:15:00,39.4,21.9,30.74,NNW,338,2.0,2.0,49,0.00,,,0.00,meteohub,2013-05-04 06:15:00,
2013-05-04 00:21:00,39.0,22.5,30.74,NNW,338,2.0,3.0,51,0.00,,,0.00,meteohub,2013-05-04 06:21:00,
2013-05-04 00:26:00,38.7,22.6,30.74,NNW,338,1.0,3.0,52,0.00,,,0.00,meteohub,2013-05-04 06:26:00,
2013-05-04 00:31:00,38.5,22.5,30.74,NNE,22,2.0,3.0,52,0.00,,,0.00,meteohub,2013-05-04 06:31:00,
2013-05-04 00:36:00,38.3,22.3,30.74,NNW,338,1.0,3.0,52,0.00,,,0.00,meteohub,2013-05-04 06:36:00,
2013-05-04 00:41:00,38.1,22.1,30.74,NNW,338,0.0,3.0,52,0.00,,,0.00,meteohub,2013-05-04 06:41:00,
2013-05-04 00:46:00,37.4,21.9,30.74,NNW,338,2.0,3.0,53,0.00,,,0.00,meteohub,2013-05-04 06:46:00,
2013-05-04 00:51:00,36.9,22.3,30.74,NNW,338,2.0,3.0,55,0.00,,,0.00,meteohub,2013-05-04 06:51:00,
2013-05-04 00:56:00,36.9,22.3,30.74,NNW,338,1.0,3.0,55,0.00,,,0.00,meteohub,2013-05-04 06:56:00,
2013-05-04 01:01:00,37.0,22.5,30.74,NNW,338,0.0,3.0,55,0.00,,,0.00,meteohub,2013-05-04 07:01:00,
2013-05-04 01:06:00,37.2,23.0,30.74,ESE,112,0.0,2.0,56,0.00,,,0.00,meteohub,2013-05-04 07:06:00,
2013-05-04 01:11:00,37.9,24.1,30.74,NNW,338,1.0,3.0,57,0.00,,,0.00,meteohub,2013-05-04 07:11:00,
2013-05-04 01:16:00,37.4,23.5,30.74,NNE,22,0.0,3.0,57,0.00,,,0.00,meteohub,2013-05-04 07:16:00,
2013-05-04 01:21:00,37.0,23.2,30.74,NNW,338,2.0,3.0,57,0.00,,,0.00,meteohub,2013-05-04 07:21:00,
2013-05-04 01:26:00,36.9,23.5,30.74,NNE,22,2.0,3.0,58,0.00,,,0.00,meteohub,2013-05-04 07:26:00,
2013-05-04 01:31:00,36.5,24.4,30.74,NE,45,1.0,3.0,61,0.00,,,0.00,meteohub,2013-05-04 07:31:00,
2013-05-04 01:36:00,36.7,24.6,30.74,NNE,22,3.0,3.0,61,0.00,,,0.00,meteohub,2013-05-04 07:36:00,
2013-05-04 01:41:00,37.4,25.2,30.74,ENE,68,0.0,3.0,61,0.00,,,0.00,meteohub,2013-05-04 07:41:00,
2013-05-04 01:47:00,37.4,25.2,30.71,NNW,338,0.0,3.0,61,0.00,,,0.00,meteohub,2013-05-04 07:47:00,
2013-05-04 01:52:00,36.9,25.2,30.71,NNE,22,2.0,3.0,62,0.00,,,0.00,meteohub,2013-05-04 07:52:00,
2013-05-04 01:57:00,37.0,25.7,30.71,NNE,22,2.0,3.0,63,0.00,,,0.00,meteohub,2013-05-04 07:57:00,
2013-05-04 02:02:00,37.4,25.5,30.71,NNE,22,1.0,3.0,62,0.00,,,0.00,meteohub,2013-05-04 08:02:00,
2013-05-04 02:07:00,37.4,25.2,30.71,NNW,338,2.0,3.0,61,0.00,,,0.00,meteohub,2013-05-04 08:07:00,
2013-05-04 02:12:00,37.2,25.0,30.71,NNE,22,2.0,3.0,61,0.00,,,0.00,meteohub,2013-05-04 08:12:00,
2013-05-04 02:17:00,37.2,25.0,30.71,NNE,22,1.0,2.0,61,0.00,,,0.00,meteohub,2013-05-04 08:17:00,
2013-05-04 02:22:00,37.0,24.8,30.71,NNE,22,2.0,2.0,61,0.00,,,0.00,meteohub,2013-05-04 08:22:00,
2013-05-04 02:27:00,36.5,24.8,30.71,NNW,338,0.0,3.0,62,0.00,,,0.00,meteohub,2013-05-04 08:27:00,
2013-05-04 02:32:00,36.1,24.4,30.68,NNW,338,0.0,3.0,62,0.00,,,0.00,meteohub,2013-05-04 08:32:00,
2013-05-04 02:37:00,36.0,24.3,30.68,ESE,112,0.0,3.0,62,0.00,,,0.00,meteohub,2013-05-04 08:37:00,
2013-05-04 02:42:00,35.8,24.4,30.68,NNE,22,0.0,0.0,63,0.00,,,0.00,meteohub,2013-05-04 08:42:00,
2013-05-04 02:47:00,35.8,24.8,30.68,NNE,22,2.0,0.0,64,0.00,,,0.00,meteohub,2013-05-04 08:47:00,
2013-05-04 02:52:00,36.0,26.4,-100.00,NNW,338,2.0,2.0,68,0.00,,,0.00,meteohub,2013-05-04 08:52:00,
2013-05-04 03:15:00,35.6,26.1,30.71,NNW,338,0.0,0.0,68,0.00,,,0.00,meteohub,2013-05-04 09:15:00,
2013-05-04 03:43:00,34.9,24.3,30.71,NNW,338,0.0,2.0,65,0.00,,,0.00,meteohub,2013-05-04 09:43:00,
2013-05-04 03:50:00,34.5,24.1,30.71,NNW,338,0.0,0.0,65,0.00,,,0.00,meteohub,2013-05-04 09:50:00,
2013-05-04 03:55:00,34.5,23.7,30.71,NNE,22,0.0,0.0,64,0.00,,,0.00,meteohub,2013-05-04 09:55:00,
2013-05-04 04:00:00,34.7,24.3,30.71,NNE,22,0.0,1.0,65,0.00,,,0.00,meteohub,2013-05-04 10:00:00,
2013-05-04 04:05:00,34.3,23.9,30.71,East,90,0.0,1.0,65,0.00,,,0.00,meteohub,2013-05-04 10:05:00,
2013-05-04 04:10:00,34.3,23.5,30.71,ENE,68,0.0,1.0,64,0.00,,,0.00,meteohub,2013-05-04 10:10:00,
2013-05-04 04:15:00,34.3,23.5,30.71,ENE,68,1.0,2.0,64,0.00,,,0.00,meteohub,2013-05-04 10:15:00,
2013-05-04 04:20:00,34.7,23.7,30.71,NNE,22,0.0,2.0,64,0.00,,,0.00,meteohub,2013-05-04 10:20:00,
2013-05-04 04:25:00,34.2,23.4,30.71,NNE,22,1.0,3.0,64,0.00,,,0.00,meteohub,2013-05-04 10:25:00,
2013-05-04 04:30:00,34.0,23.5,30.71,East,90,0.0,3.0,65,0.00,,,0.00,meteohub,2013-05-04 10:30:00,
2013-05-04 04:35:00,34.0,23.5,30.71,ENE,68,2.0,3.0,65,0.00,,,0.00,meteohub,2013-05-04 10:35:00,
2013-05-04 04:40:00,34.0,23.5,30.71,ENE,68,0.0,2.0,65,0.00,,,0.00,meteohub,2013-05-04 10:40:00,
2013-05-04 04:45:00,33.6,23.5,30.71,NNW,338,2.0,2.0,66,0.00,,,0.00,meteohub,2013-05-04 10:45:00,
2013-05-04 04:50:00,33.3,24.6,30.71,NNE,22,2.0,3.0,70,0.00,,,0.00,meteohub,2013-05-04 10:50:00,
2013-05-04 04:55:00,33.6,25.0,30.71,NE,45,2.0,3.0,70,0.00,,,0.00,meteohub,2013-05-04 10:55:00,
2013-05-04 05:01:00,34.0,25.3,30.71,NNW,338,2.0,3.0,70,0.00,,,0.00,meteohub,2013-05-04 11:01:00,
2013-05-04 05:06:00,33.6,24.6,30.71,NNE,22,1.0,2.0,69,0.00,,,0.00,meteohub,2013-05-04 11:06:00,
2013-05-04 05:11:00,33.6,24.3,30.71,ENE,68,0.0,2.0,68,0.00,,,0.00,meteohub,2013-05-04 11:11:00,
2013-05-04 05:16:00,33.4,24.1,30.71,ENE,68,0.0,2.0,68,0.00,,,0.00,meteohub,2013-05-04 11:16:00,
2013-05-04 05:21:00,33.1,23.4,30.71,ENE,68,0.0,1.0,67,0.00,,,0.00,meteohub,2013-05-04 11:21:00,
2013-05-04 05:26:00,33.1,23.4,30.71,ENE,68,0.0,0.0,67,0.00,,,0.00,meteohub,2013-05-04 11:26:00,
2013-05-04 05:31:00,33.1,23.4,30.71,ENE,68,0.0,0.0,67,0.00,,,0.00,meteohub,2013-05-04 11:31:00,
2013-05-04 05:36:00,33.1,23.4,30.71,NE,45,0.0,2.0,67,0.00,,,0.00,meteohub,2013-05-04 11:36:00,
2013-05-04 05:41:00,33.1,23.7,30.71,NNW,338,0.0,2.0,68,0.00,,,0.00,meteohub,2013-05-04 11:41:00,
2013-05-04 05:46:00,32.9,23.9,30.71,ENE,68,0.0,2.0,69,0.00,,,0.00,meteohub,2013-05-04 11:46:00,
2013-05-04 05:51:00,33.4,24.4,30.71,WNW,292,0.0,2.0,69,0.00,,,0.00,meteohub,2013-05-04 11:51:00,
2013-05-04 05:57:00,33.1,24.4,30.71,NNE,22,1.0,2.0,70,0.00,,,0.00,meteohub,2013-05-04 11:57:00,
2013-05-04 06:02:00,33.1,24.4,30.68,NNE,22,0.0,2.0,70,0.00,,,0.00,meteohub,2013-05-04 12:02:00,
2013-05-04 06:08:00,33.1,24.8,30.68,ENE,68,2.0,2.0,71,0.00,,,0.00,meteohub,2013-05-04 12:08:00,
2013-05-04 06:13:00,33.4,24.8,30.68,ENE,68,0.0,2.0,70,0.00,,,0.00,meteohub,2013-05-04 12:13:00,
2013-05-04 06:20:00,33.6,24.6,30.68,ENE,68,0.0,2.0,69,0.00,,,0.00,meteohub,2013-05-04 12:20:00,
2013-05-04 06:25:00,34.0,24.3,30.68,ENE,68,0.0,2.0,67,0.00,,,0.00,meteohub,2013-05-04 12:25:00,
2013-05-04 06:30:00,34.0,24.6,30.68,NNE,22,0.0,0.0,68,0.00,,,0.00,meteohub,2013-05-04 12:30:00,
2013-05-04 06:36:00,33.8,24.4,30.71,ENE,68,1.0,2.0,68,0.00,,,0.00,meteohub,2013-05-04 12:36:00,
2013-05-04 06:41:00,34.3,24.6,30.71,ENE,68,1.0,2.0,67,0.00,,,0.00,meteohub,2013-05-04 12:41:00,
2013-05-04 06:46:00,34.3,24.6,30.71,NNE,22,0.0,2.0,67,0.00,,,0.00,meteohub,2013-05-04 12:46:00,
2013-05-04 06:51:00,34.3,24.6,30.71,NE,45,0.0,2.0,67,0.00,,,0.00,meteohub,2013-05-04 12:51:00,
2013-05-04 06:56:00,34.5,24.8,30.71,NNW,338,0.0,1.0,67,0.00,,,0.00,meteohub,2013-05-04 12:56:00,
2013-05-04 07:01:00,34.9,25.0,30.71,ENE,68,1.0,0.0,67,0.00,,,0.00,meteohub,2013-05-04 13:01:00,
2013-05-04 07:05:00,35.6,25.7,30.71,NE,45,1.0,2.0,67,0.00,,,0.00,meteohub,2013-05-04 13:05:00,
2013-05-04 07:10:00,36.3,26.4,30.71,NNW,338,3.0,3.0,67,0.00,,,0.00,meteohub,2013-05-04 13:10:00,
2013-05-04 07:15:00,36.9,27.3,30.71,North,0,4.0,4.0,68,0.00,,,0.00,meteohub,2013-05-04 13:15:00,
2013-05-04 07:20:00,37.8,28.6,30.74,NNW,338,3.0,4.0,69,0.00,,,0.00,meteohub,2013-05-04 13:20:00,
2013-05-04 07:25:00,38.7,29.1,30.74,NNW,338,1.0,4.0,68,0.00,,,0.00,meteohub,2013-05-04 13:25:00,
2013-05-04 07:30:00,39.7,29.3,30.74,NNW,338,3.0,6.0,66,0.00,,,0.00,meteohub,2013-05-04 13:30:00,
2013-05-04 07:35:00,40.8,30.0,30.74,WNW,292,4.0,6.0,65,0.00,,,0.00,meteohub,2013-05-04 13:35:00,
2013-05-04 07:40:00,41.5,29.8,30.74,NNW,338,2.0,6.0,63,0.00,,,0.00,meteohub,2013-05-04 13:40:00,
2013-05-04 07:45:00,41.9,29.8,30.74,ESE,112,3.0,6.0,62,0.00,,,0.00,meteohub,2013-05-04 13:45:00,
2013-05-04 07:50:00,42.1,30.0,30.74,ENE,68,1.0,5.0,62,0.00,,,0.00,meteohub,2013-05-04 13:50:00,
2013-05-04 07:55:00,42.6,30.2,30.74,NNW,338,4.0,4.0,61,0.00,,,0.00,meteohub,2013-05-04 13:55:00,
2013-05-04 08:00:00,43.3,30.7,30.74,NNW,338,2.0,5.0,61,0.00,,,0.00,meteohub,2013-05-04 14:00:00,
2013-05-04 08:06:00,44.6,31.6,30.74,ESE,112,0.0,5.0,60,0.00,,,0.00,meteohub,2013-05-04 14:06:00,
2013-05-04 08:11:00,44.6,31.3,30.74,NNE,22,2.0,5.0,59,0.00,,,0.00,meteohub,2013-05-04 14:11:00,
2013-05-04 08:16:00,45.1,31.6,30.74,NNE,22,0.0,4.0,59,0.00,,,0.00,meteohub,2013-05-04 14:16:00,
2013-05-04 08:21:00,45.1,30.9,30.74,ESE,112,2.0,3.0,57,0.00,,,0.00,meteohub,2013-05-04 14:21:00,
2013-05-04 08:26:00,46.4,32.0,30.74,ESE,112,2.0,4.0,57,0.00,,,0.00,meteohub,2013-05-04 14:26:00,
2013-05-04 08:31:00,47.3,32.4,30.74,ESE,112,0.0,4.0,56,0.00,,,0.00,meteohub,2013-05-04 14:31:00,
2013-05-04 08:36:00,49.1,34.5,30.74,NNW,338,2.0,4.0,57,0.00,,,0.00,meteohub,2013-05-04 14:36:00,
2013-05-04 08:41:00,48.7,32.0,30.74,WNW,292,4.0,4.0,52,0.00,,,0.00,meteohub,2013-05-04 14:41:00,
2013-05-04 08:46:00,49.1,31.8,30.74,NNW,338,3.0,6.0,51,0.00,,,0.00,meteohub,2013-05-04 14:46:00,
2013-05-04 08:52:00,49.1,31.8,30.74,NNW,338,3.0,6.0,51,0.00,,,0.00,meteohub,2013-05-04 14:52:00,
2013-05-04 08:57:00,49.8,32.5,30.74,NNW,338,2.0,6.0,51,0.00,,,0.00,meteohub,2013-05-04 14:57:00,
2013-05-04 09:02:00,49.8,32.5,30.74,NNW,338,4.0,6.0,51,0.00,,,0.00,meteohub,2013-05-04 15:02:00,
2013-05-04 09:07:00,51.3,33.8,30.74,NNE,22,3.0,7.0,51,0.00,,,0.00,meteohub,2013-05-04 15:07:00,
2013-05-04 09:12:00,51.1,32.5,30.74,East,90,3.0,9.0,49,0.00,,,0.00,meteohub,2013-05-04 15:12:00,
2013-05-04 09:17:00,51.4,33.4,30.74,North,0,6.0,9.0,50,0.00,,,0.00,meteohub,2013-05-04 15:17:00,
2013-05-04 09:22:00,52.3,33.3,30.74,NNW,338,2.0,7.0,48,0.00,,,0.00,meteohub,2013-05-04 15:22:00,
2013-05-04 09:27:00,52.2,33.1,30.74,SSE,158,5.0,6.0,48,0.00,,,0.00,meteohub,2013-05-04 15:27:00,
2013-05-04 09:32:00,50.7,31.8,30.74,ENE,68,3.0,8.0,48,0.00,,,0.00,meteohub,2013-05-04 15:32:00,
2013-05-04 09:37:00,50.4,31.5,30.74,NNE,22,3.0,8.0,48,0.00,,,0.00,meteohub,2013-05-04 15:37:00,
2013-05-04 09:42:00,50.2,31.3,30.74,ENE,68,2.0,8.0,48,0.00,,,0.00,meteohub,2013-05-04 15:42:00,
2013-05-04 09:47:00,51.1,32.2,30.74,East,90,3.0,8.0,48,0.00,,,0.00,meteohub,2013-05-04 15:47:00,
2013-05-04 09:52:00,51.3,32.7,30.74,SSE,158,4.0,8.0,49,0.00,,,0.00,meteohub,2013-05-04 15:52:00,
2013-05-04 09:57:00,51.6,33.1,30.74,NNW,338,3.0,10.0,49,0.00,,,0.00,meteohub,2013-05-04 15:57:00,
2013-05-04 10:02:00,51.4,32.9,30.74,ESE,112,3.0,10.0,49,0.00,,,0.00,meteohub,2013-05-04 16:02:00,
2013-05-04 10:07:00,51.6,33.1,30.74,SSE,158,5.0,9.0,49,0.00,,,0.00,meteohub,2013-05-04 16:07:00,
2013-05-04 10:12:00,51.4,32.4,30.74,WNW,292,4.0,9.0,48,0.00,,,0.00,meteohub,2013-05-04 16:12:00,
2013-05-04 10:17:00,52.0,32.4,30.74,SSW,202,3.0,8.0,47,0.00,,,0.00,meteohub,2013-05-04 16:17:00,
2013-05-04 10:22:00,52.3,32.7,30.74,NNW,338,5.0,8.0,47,0.00,,,0.00,meteohub,2013-05-04 16:22:00,
2013-05-04 10:27:00,52.2,32.5,30.74,NNE,22,6.0,6.0,47,0.00,,,0.00,meteohub,2013-05-04 16:27:00,
2013-05-04 10:32:00,52.5,32.9,30.77,WSW,248,4.0,6.0,47,0.00,,,0.00,meteohub,2013-05-04 16:32:00,
2013-05-04 10:37:00,52.7,33.1,30.77,NNW,338,4.0,6.0,47,0.00,,,0.00,meteohub,2013-05-04 16:37:00,
2013-05-04 10:42:00,54.0,34.2,30.77,WSW,248,4.0,6.0,47,0.00,,,0.00,meteohub,2013-05-04 16:42:00,
2013-05-04 10:47:00,53.8,34.0,30.77,SSE,158,3.0,6.0,47,0.00,,,0.00,meteohub,2013-05-04 16:47:00,
2013-05-04 10:52:00,54.7,34.9,30.77,ESE,112,5.0,7.0,47,0.00,,,0.00,meteohub,2013-05-04 16:52:00,
2013-05-04 10:57:00,53.6,34.0,30.77,SSE,158,9.0,9.0,47,0.00,,,0.00,meteohub,2013-05-04 16:57:00,
2013-05-04 11:02:00,53.4,34.3,30.77,ESE,112,7.0,9.0,48,0.00,,,0.00,meteohub,2013-05-04 17:02:00,
2013-05-04 11:07:00,53.8,34.5,30.77,ESE,112,3.0,9.0,48,0.00,,,0.00,meteohub,2013-05-04 17:07:00,
2013-05-04 11:12:00,55.6,35.8,30.77,South,180,11.0,11.0,47,0.00,,,0.00,meteohub,2013-05-04 17:12:00,
2013-05-04 11:17:00,54.9,35.1,30.77,SSE,158,9.0,11.0,47,0.00,,,0.00,meteohub,2013-05-04 17:17:00,
2013-05-04 11:22:00,55.6,35.2,30.77,SSE,158,3.0,11.0,46,0.00,,,0.00,meteohub,2013-05-04 17:22:00,
2013-05-04 11:27:00,56.1,35.6,30.77,ENE,68,6.0,11.0,46,0.00,,,0.00,meteohub,2013-05-04 17:27:00,
2013-05-04 11:32:00,56.5,36.0,30.77,ESE,112,3.0,9.0,46,0.00,,,0.00,meteohub,2013-05-04 17:32:00,
2013-05-04 11:37:00,56.7,36.1,30.77,NNE,22,10.0,10.0,46,0.00,,,0.00,meteohub,2013-05-04 17:37:00,
2013-05-04 11:42:00,56.7,35.1,30.77,NNW,338,5.0,10.0,44,0.00,,,0.00,meteohub,2013-05-04 17:42:00,
2013-05-04 11:47:00,57.2,36.1,30.77,NNW,338,3.0,10.0,45,0.00,,,0.00,meteohub,2013-05-04 17:47:00,
2013-05-04 11:52:00,57.6,35.8,30.77,NNE,22,0.0,10.0,44,0.00,,,0.00,meteohub,2013-05-04 17:52:00,
2013-05-04 11:57:00,57.2,35.6,30.77,SSE,158,8.0,8.0,44,0.00,,,0.00,meteohub,2013-05-04 17:57:00,
2013-05-04 12:02:00,57.0,34.7,30.77,SE,135,6.0,8.0,43,0.00,,,0.00,meteohub,2013-05-04 18:02:00,
2013-05-04 12:07:00,57.9,35.6,30.77,WSW,248,2.0,9.0,43,0.00,,,0.00,meteohub,2013-05-04 18:07:00,
2013-05-04 12:12:00,57.9,35.1,30.77,NNE,22,5.0,9.0,42,0.00,,,0.00,meteohub,2013-05-04 18:12:00,
2013-05-04 12:17:00,58.1,35.2,30.77,SSE,158,5.0,7.0,42,0.00,,,0.00,meteohub,2013-05-04 18:17:00,
2013-05-04 12:22:00,58.3,34.7,30.77,SSE,158,6.0,8.0,41,0.00,,,0.00,meteohub,2013-05-04 18:22:00,
2013-05-04 12:27:00,58.3,34.7,30.77,SSE,158,10.0,10.0,41,0.00,,,0.00,meteohub,2013-05-04 18:27:00,
2013-05-04 12:32:00,57.7,33.6,30.77,WNW,292,3.0,10.0,40,0.00,,,0.00,meteohub,2013-05-04 18:32:00,
2013-05-04 12:37:00,58.3,34.7,30.77,SE,135,4.0,10.0,41,0.00,,,0.00,meteohub,2013-05-04 18:37:00,
2013-05-04 12:42:00,59.7,34.7,30.77,ESE,112,3.0,10.0,39,0.00,,,0.00,meteohub,2013-05-04 18:42:00,
2013-05-04 12:47:00,60.1,36.3,30.77,NNW,338,1.0,6.0,41,0.00,,,0.00,meteohub,2013-05-04 18:47:00,
2013-05-04 12:52:00,60.3,35.2,30.77,SSW,202,4.0,9.0,39,0.00,,,0.00,meteohub,2013-05-04 18:52:00,
2013-05-04 12:57:00,59.7,34.7,30.77,SSW,202,4.0,9.0,39,0.00,,,0.00,meteohub,2013-05-04 18:57:00,
2013-05-04 13:02:00,59.9,35.6,30.74,WSW,248,3.0,6.0,40,0.00,,,0.00,meteohub,2013-05-04 19:02:00,
2013-05-04 13:07:00,60.3,35.2,30.74,ESE,112,4.0,6.0,39,0.00,,,0.00,meteohub,2013-05-04 19:07:00,
2013-05-04 13:12:00,60.8,35.1,30.74,SSE,158,4.0,6.0,38,0.00,,,0.00,meteohub,2013-05-04 19:12:00,
2013-05-04 13:17:00,58.5,33.6,30.74,WSW,248,4.0,6.0,39,0.00,,,0.00,meteohub,2013-05-04 19:17:00,
2013-05-04 13:22:00,57.7,33.6,30.74,SSE,158,4.0,6.0,40,0.00,,,0.00,meteohub,2013-05-04 19:22:00,
2013-05-04 13:27:00,59.2,34.9,30.74,SSE,158,6.0,13.0,40,0.00,,,0.00,meteohub,2013-05-04 19:27:00,
2013-05-04 13:32:00,59.4,34.5,30.74,SSE,158,3.0,13.0,39,0.00,,,0.00,meteohub,2013-05-04 19:32:00,
2013-05-04 13:37:00,59.9,34.9,30.74,SSE,158,6.0,8.0,39,0.00,,,0.00,meteohub,2013-05-04 19:37:00,
2013-05-04 13:42:00,60.4,34.7,30.74,WSW,248,3.0,9.0,38,0.00,,,0.00,meteohub,2013-05-04 19:42:00,
2013-05-04 13:47:00,60.6,34.9,30.74,WSW,248,3.0,9.0,38,0.00,,,0.00,meteohub,2013-05-04 19:47:00,
2013-05-04 13:52:00,60.8,35.1,30.74,SSW,202,4.0,9.0,38,0.00,,,0.00,meteohub,2013-05-04 19:52:00,
2013-05-04 13:57:00,61.7,35.2,30.74,ESE,112,6.0,11.0,37,0.00,,,0.00,meteohub,2013-05-04 19:57:00,
2013-05-04 14:02:00,62.4,35.8,30.74,SSW,202,6.0,11.0,37,0.00,,,0.00,meteohub,2013-05-04 20:02:00,
2013-05-04 14:07:00,60.4,34.2,30.74,SSE,158,3.0,11.0,37,0.00,,,0.00,meteohub,2013-05-04 20:07:00,
2013-05-04 14:12:00,60.4,34.7,30.74,SSW,202,6.0,12.0,38,0.00,,,0.00,meteohub,2013-05-04 20:12:00,
2013-05-04 14:17:00,60.6,35.6,30.74,WSW,248,3.0,12.0,39,0.00,,,0.00,meteohub,2013-05-04 20:17:00,
2013-05-04 14:22:00,61.2,34.7,30.74,WSW,248,3.0,12.0,37,0.00,,,0.00,meteohub,2013-05-04 20:22:00,
2013-05-04 14:27:00,61.3,34.2,30.74,ESE,112,5.0,10.0,36,0.00,,,0.00,meteohub,2013-05-04 20:27:00,
2013-05-04 14:32:00,61.7,34.5,30.74,SSE,158,6.0,8.0,36,0.00,,,0.00,meteohub,2013-05-04 20:32:00,
2013-05-04 14:37:00,61.0,33.8,30.74,WSW,248,3.0,11.0,36,0.00,,,0.00,meteohub,2013-05-04 20:37:00,
2013-05-04 14:42:00,61.5,34.3,30.74,SSW,202,4.0,11.0,36,0.00,,,0.00,meteohub,2013-05-04 20:42:00,
2013-05-04 14:47:00,61.3,34.9,30.74,SSE,158,4.0,11.0,37,0.00,,,0.00,meteohub,2013-05-04 20:47:00,
2013-05-04 14:52:00,58.1,32.0,30.74,SSE,158,6.0,9.0,37,0.00,,,0.00,meteohub,2013-05-04 20:52:00,
2013-05-04 14:57:00,60.4,34.2,30.74,SSE,158,7.0,9.0,37,0.00,,,0.00,meteohub,2013-05-04 20:57:00,
2013-05-04 15:02:00,60.6,33.6,30.74,South,180,8.0,9.0,36,0.00,,,0.00,meteohub,2013-05-04 21:02:00,
2013-05-04 15:07:00,62.1,34.2,30.74,SSW,202,3.0,11.0,35,0.00,,,0.00,meteohub,2013-05-04 21:07:00,
2013-05-04 15:12:00,64.4,36.1,30.74,WSW,248,5.0,11.0,35,0.00,,,0.00,meteohub,2013-05-04 21:12:00,
2013-05-04 15:17:00,61.2,33.3,30.74,SSE,158,8.0,9.0,35,0.00,,,0.00,meteohub,2013-05-04 21:17:00,
2013-05-04 15:22:00,61.0,33.3,30.74,ENE,68,4.0,13.0,35,0.00,,,0.00,meteohub,2013-05-04 21:22:00,
2013-05-04 15:27:00,62.4,34.5,30.74,ESE,112,1.0,13.0,35,0.00,,,0.00,meteohub,2013-05-04 21:27:00,
2013-05-04 15:32:00,59.7,32.7,30.74,SSE,158,9.0,13.0,36,0.00,,,0.00,meteohub,2013-05-04 21:32:00,
2013-05-04 15:37:00,59.4,32.4,30.74,SSW,202,4.0,12.0,36,0.00,,,0.00,meteohub,2013-05-04 21:37:00,
2013-05-04 15:42:00,59.7,32.7,30.74,South,180,6.0,12.0,36,0.00,,,0.00,meteohub,2013-05-04 21:42:00,
2013-05-04 15:47:00,62.2,34.3,30.74,SSE,158,6.0,12.0,35,0.00,,,0.00,meteohub,2013-05-04 21:47:00,
2013-05-04 15:52:00,60.6,33.6,30.74,SSE,158,8.0,8.0,36,0.00,,,0.00,meteohub,2013-05-04 21:52:00,
2013-05-04 15:57:00,58.3,31.5,30.74,SSW,202,2.0,8.0,36,0.00,,,0.00,meteohub,2013-05-04 21:57:00,
2013-05-04 16:02:00,58.8,32.0,30.74,ESE,112,4.0,8.0,36,0.00,,,0.00,meteohub,2013-05-04 22:02:00,
2013-05-04 16:07:00,58.3,30.7,30.74,South,180,5.0,8.0,35,0.00,,,0.00,meteohub,2013-05-04 22:07:00,
2013-05-04 16:12:00,57.7,30.9,30.74,SSW,202,3.0,6.0,36,0.00,,,0.00,meteohub,2013-05-04 22:12:00,
2013-05-04 16:17:00,57.6,30.9,30.74,SSW,202,2.0,6.0,36,0.00,,,0.00,meteohub,2013-05-04 22:17:00,
2013-05-04 16:22:00,57.2,30.6,30.74,SSE,158,4.0,6.0,36,0.00,,,0.00,meteohub,2013-05-04 22:22:00,
2013-05-04 16:27:00,56.8,30.9,30.74,South,180,1.0,9.0,37,0.00,,,0.00,meteohub,2013-05-04 22:27:00,
2013-05-04 16:32:00,56.7,30.0,30.74,East,90,0.0,9.0,36,0.00,,,0.00,meteohub,2013-05-04 22:32:00,
2013-05-04 16:37:00,56.5,29.8,30.74,NNW,338,2.0,9.0,36,0.00,,,0.00,meteohub,2013-05-04 22:37:00,
2013-05-04 16:42:00,56.1,29.7,30.74,SSW,202,1.0,5.0,36,0.00,,,0.00,meteohub,2013-05-04 22:42:00,
2013-05-04 16:47:00,55.4,28.9,30.74,SSE,158,4.0,5.0,36,0.00,,,0.00,meteohub,2013-05-04 22:47:00,
2013-05-04 16:52:00,55.2,29.5,30.74,SSW,202,3.0,8.0,37,0.00,,,0.00,meteohub,2013-05-04 22:52:00,
2013-05-04 16:57:00,54.7,29.7,30.74,SSW,202,5.0,8.0,38,0.00,,,0.00,meteohub,2013-05-04 22:57:00,
2013-05-04 17:02:00,54.5,29.5,30.74,SSE,158,6.0,11.0,38,0.00,,,0.00,meteohub,2013-05-04 23:02:00,
2013-05-04 17:07:00,54.9,29.1,30.74,SE,135,3.0,11.0,37,0.00,,,0.00,meteohub,2013-05-04 23:07:00,
2013-05-04 17:12:00,54.7,28.9,30.74,SSE,158,2.0,9.0,37,0.00,,,0.00,meteohub,2013-05-04 23:12:00,
2013-05-04 17:17:00,54.5,28.8,30.74,SSE,158,4.0,6.0,37,0.00,,,0.00,meteohub,2013-05-04 23:17:00,
2013-05-04 17:22:00,54.3,28.6,30.74,SSE,158,6.0,6.0,37,0.00,,,0.00,meteohub,2013-05-04 23:22:00,
2013-05-04 17:27:00,54.5,28.8,30.74,East,90,0.0,6.0,37,0.00,,,0.00,meteohub,2013-05-04 23:27:00,
2013-05-04 17:32:00,54.5,28.8,30.74,SSW,202,1.0,6.0,37,0.00,,,0.00,meteohub,2013-05-04 23:32:00,
2013-05-04 17:37:00,54.5,28.8,30.74,ESE,112,3.0,6.0,37,0.00,,,0.00,meteohub,2013-05-04 23:37:00,
2013-05-04 17:42:00,54.7,28.9,30.74,SSE,158,4.0,6.0,37,0.00,,,0.00,meteohub,2013-05-04 23:42:00,
2013-05-04 17:47:00,54.7,28.9,30.74,SSE,158,3.0,6.0,37,0.00,,,0.00,meteohub,2013-05-04 23:47:00,
2013-05-04 17:52:00,54.5,28.8,30.74,SSE,158,4.0,6.0,37,0.00,,,0.00,meteohub,2013-05-04 23:52:00,
2013-05-04 17:57:00,54.5,29.5,30.74,SSE,158,4.0,6.0,38,0.00,,,0.00,meteohub,2013-05-04 23:57:00,
2013-05-04 18:02:00,54.5,28.8,-100.00,SSW,202,3.0,6.0,37,0.00,,,0.00,meteohub,2013-05-05 00:02:00,
2013-05-04 18:07:00,54.1,28.4,30.74,SSE,158,3.0,6.0,37,0.00,,,0.00,meteohub,2013-05-05 00:07:00,
2013-05-04 18:12:00,54.1,29.1,30.74,SSE,158,6.0,6.0,38,0.00,,,0.00,meteohub,2013-05-05 00:12:00,
2013-05-04 18:17:00,54.0,28.4,30.74,SSE,158,4.0,6.0,37,0.00,,,0.00,meteohub,2013-05-05 00:17:00,
2013-05-04 18:22:00,53.8,28.8,30.74,SSE,158,4.0,6.0,38,0.00,,,0.00,meteohub,2013-05-05 00:22:00,
2013-05-04 18:27:00,53.4,28.6,30.74,SSE,158,5.0,6.0,38,0.00,,,0.00,meteohub,2013-05-05 00:27:00,
2013-05-04 18:32:00,53.4,28.6,30.74,SSE,158,2.0,6.0,38,0.00,,,0.00,meteohub,2013-05-05 00:32:00,
2013-05-04 18:44:00,52.9,28.0,30.74,SSW,202,3.0,5.0,38,0.00,,,0.00,meteohub,2013-05-05 00:44:00,
2013-05-04 18:49:00,52.9,28.0,30.74,SSE,158,3.0,3.0,38,0.00,,,0.00,meteohub,2013-05-05 00:49:00,
2013-05-04 18:54:00,52.7,27.9,30.74,SSE,158,2.0,5.0,38,0.00,,,0.00,meteohub,2013-05-05 00:54:00,
2013-05-04 19:04:00,52.2,27.3,30.74,North,-999,-999.0,5.0,38,0.00,,,0.00,meteohub,2013-05-05 01:04:00,
2013-05-04 19:10:00,52.2,27.3,-100.00,SSE,158,3.0,4.0,38,0.00,,,0.00,meteohub,2013-05-05 01:10:00,
2013-05-04 19:24:00,51.8,27.0,30.74,SSE,158,2.0,3.0,38,0.00,,,0.00,meteohub,2013-05-05 01:24:00,
2013-05-04 19:29:00,51.8,27.0,30.74,SSE,158,4.0,4.0,38,0.00,,,0.00,meteohub,2013-05-05 01:29:00,
2013-05-04 19:35:00,51.6,27.0,30.74,ESE,112,2.0,4.0,38,0.00,,,0.00,meteohub,2013-05-05 01:35:00,
2013-05-04 19:40:00,51.6,27.0,30.74,SSE,158,3.0,4.0,38,0.00,,,0.00,meteohub,2013-05-05 01:40:00,
2013-05-04 19:45:00,51.4,26.8,30.74,ESE,112,4.0,7.0,38,0.00,,,0.00,meteohub,2013-05-05 01:45:00,
2013-05-04 19:50:00,51.3,26.6,30.74,WSW,248,1.0,7.0,38,0.00,,,0.00,meteohub,2013-05-05 01:50:00,
2013-05-04 19:55:00,51.1,26.4,30.74,SSW,202,2.0,7.0,38,0.00,,,0.00,meteohub,2013-05-05 01:55:00,
2013-05-04 20:00:00,50.9,26.2,30.74,ESE,112,1.0,4.0,38,0.00,,,0.00,meteohub,2013-05-05 02:00:00,
2013-05-04 20:05:00,50.7,26.1,30.74,ESE,112,0.0,2.0,38,0.00,,,0.00,meteohub,2013-05-05 02:05:00,
2013-05-04 20:10:00,50.7,26.1,30.74,ESE,112,3.0,3.0,38,0.00,,,0.00,meteohub,2013-05-05 02:10:00,
2013-05-04 20:15:00,50.5,25.9,30.74,SSE,158,3.0,3.0,38,0.00,,,0.00,meteohub,2013-05-05 02:15:00,
2013-05-04 20:21:00,50.7,26.1,30.77,SSW,202,4.0,4.0,38,0.00,,,0.00,meteohub,2013-05-05 02:21:00,
2013-05-04 20:26:00,50.7,26.1,30.77,SSE,158,5.0,8.0,38,0.00,,,0.00,meteohub,2013-05-05 02:26:00,
2013-05-04 20:31:00,50.4,25.7,30.77,SSE,158,5.0,9.0,38,0.00,,,0.00,meteohub,2013-05-05 02:31:00,
2013-05-04 20:36:00,50.2,26.2,30.80,SSE,158,6.0,9.0,39,0.00,,,0.00,meteohub,2013-05-05 02:36:00,
2013-05-04 20:41:00,49.8,26.6,30.80,SSE,158,6.0,9.0,40,0.00,,,0.00,meteohub,2013-05-05 02:41:00,
2013-05-04 20:46:00,49.8,25.9,30.80,SSW,202,4.0,7.0,39,0.00,,,0.00,meteohub,2013-05-05 02:46:00,
2013-05-04 20:51:00,49.5,26.2,30.77,SSE,158,11.0,11.0,40,0.00,,,0.00,meteohub,2013-05-05 02:51:00,
2013-05-04 20:56:00,49.5,26.2,30.77,SE,135,3.0,11.0,40,0.00,,,0.00,meteohub,2013-05-05 02:56:00,
2013-05-04 21:01:00,49.1,25.9,30.77,SSE,158,3.0,11.0,40,0.00,,,0.00,meteohub,2013-05-05 03:01:00,
2013-05-04 21:06:00,49.1,26.4,30.77,SSE,158,5.0,11.0,41,0.00,,,0.00,meteohub,2013-05-05 03:06:00,
2013-05-04 21:11:00,48.9,25.7,30.77,SSE,158,3.0,5.0,40,0.00,,,0.00,meteohub,2013-05-05 03:11:00,
2013-05-04 21:16:00,48.7,25.5,30.77,NNW,338,3.0,6.0,40,0.00,,,0.00,meteohub,2013-05-05 03:16:00,
2013-05-04 21:21:00,48.6,25.3,30.77,ESE,112,3.0,6.0,40,0.00,,,0.00,meteohub,2013-05-05 03:21:00,
2013-05-04 21:26:00,48.6,25.3,30.77,SSE,158,3.0,6.0,40,0.00,,,0.00,meteohub,2013-05-05 03:26:00,
2013-05-04 21:32:00,48.4,25.2,30.77,ESE,112,1.0,5.0,40,0.00,,,0.00,meteohub,2013-05-05 03:32:00,
2013-05-04 21:37:00,48.0,25.0,30.77,NW,315,0.0,5.0,40,0.00,,,0.00,meteohub,2013-05-05 03:37:00,
2013-05-04 21:42:00,48.0,25.5,30.77,ENE,68,4.0,6.0,41,0.00,,,0.00,meteohub,2013-05-05 03:42:00,
2013-05-04 21:47:00,47.8,24.8,30.77,WSW,248,2.0,6.0,40,0.00,,,0.00,meteohub,2013-05-05 03:47:00,
2013-05-04 21:52:00,47.7,24.6,30.80,SSW,202,3.0,4.0,40,0.00,,,0.00,meteohub,2013-05-05 03:52:00,
2013-05-04 21:57:00,47.5,24.4,30.80,SSW,202,2.0,7.0,40,0.00,,,0.00,meteohub,2013-05-05 03:57:00,
2013-05-04 22:01:00,47.5,24.4,30.80,WSW,248,3.0,7.0,40,0.00,,,0.00,meteohub,2013-05-05 04:01:00,
2013-05-04 22:02:00,47.5,24.4,30.80,SSW,202,1.0,7.0,40,0.00,,,0.00,meteohub,2013-05-05 04:02:00,
2013-05-04 22:04:00,47.3,24.3,30.80,SSE,158,1.0,7.0,40,0.00,,,0.00,meteohub,2013-05-05 04:04:00,
2013-05-04 22:05:00,47.3,24.3,30.80,SSE,158,2.0,6.0,40,0.00,,,0.00,meteohub,2013-05-05 04:05:00,
2013-05-04 22:10:00,47.1,24.1,30.80,East,90,2.0,4.0,40,0.00,,,0.00,meteohub,2013-05-05 04:10:00,
2013-05-04 22:15:00,46.8,23.7,30.80,ENE,68,1.0,4.0,40,0.00,,,0.00,meteohub,2013-05-05 04:15:00,
2013-05-04 22:20:00,46.6,23.5,30.80,ENE,68,2.0,3.0,40,0.00,,,0.00,meteohub,2013-05-05 04:20:00,
2013-05-04 22:25:00,46.4,23.4,30.80,NNE,22,1.0,2.0,40,0.00,,,0.00,meteohub,2013-05-05 04:25:00,
2013-05-04 22:30:00,46.2,23.9,30.80,ESE,112,1.0,2.0,41,0.00,,,0.00,meteohub,2013-05-05 04:30:00,
2013-05-04 22:35:00,46.0,23.7,30.80,SSW,202,1.0,2.0,41,0.00,,,0.00,meteohub,2013-05-05 04:35:00,
2013-05-04 22:41:00,46.0,23.7,30.80,SE,135,1.0,2.0,41,0.00,,,0.00,meteohub,2013-05-05 04:41:00,
2013-05-04 22:46:00,45.5,23.2,30.80,South,180,4.0,4.0,41,0.00,,,0.00,meteohub,2013-05-05 04:46:00,
2013-05-04 22:51:00,45.1,22.8,30.83,ESE,112,2.0,4.0,41,0.00,,,0.00,meteohub,2013-05-05 04:51:00,
2013-05-04 22:56:00,44.6,23.0,30.83,SSE,158,3.0,4.0,42,0.00,,,0.00,meteohub,2013-05-05 04:56:00,
2013-05-04 23:01:00,44.1,22.5,30.83,ESE,112,0.0,4.0,42,0.00,,,0.00,meteohub,2013-05-05 05:01:00,
2013-05-04 23:06:00,43.2,21.7,30.83,SE,135,1.0,3.0,42,0.00,,,0.00,meteohub,2013-05-05 05:06:00,
2013-05-04 23:11:00,42.8,21.4,30.83,SSE,158,1.0,3.0,42,0.00,,,0.00,meteohub,2013-05-05 05:11:00,
2013-05-04 23:16:00,42.6,21.2,30.83,SSE,158,2.0,3.0,42,0.00,,,0.00,meteohub,2013-05-05 05:16:00,
2013-05-04 23:21:00,42.1,21.2,30.83,NNE,22,1.0,3.0,43,0.00,,,0.00,meteohub,2013-05-05 05:21:00,
2013-05-04 23:26:00,41.7,20.3,30.83,ESE,112,1.0,3.0,42,0.00,,,0.00,meteohub,2013-05-05 05:26:00,
2013-05-04 23:31:00,41.5,20.1,30.83,WNW,292,0.0,2.0,42,0.00,,,0.00,meteohub,2013-05-05 05:31:00,
2013-05-04 23:36:00,40.6,20.5,30.83,NNW,338,0.0,2.0,44,0.00,,,0.00,meteohub,2013-05-05 05:36:00,
2013-05-04 23:41:00,40.3,20.1,30.83,ENE,68,0.0,2.0,44,0.00,,,0.00,meteohub,2013-05-05 05:41:00,
2013-05-04 23:46:00,39.9,19.8,30.83,SSE,158,0.0,2.0,44,0.00,,,0.00,meteohub,2013-05-05 05:46:00,
2013-05-04 23:51:00,39.9,19.2,30.83,SSE,158,4.0,4.0,43,0.00,,,0.00,meteohub,2013-05-05 05:51:00,
2013-05-04 23:56:00,40.8,19.6,30.83,SSE,158,4.0,6.0,42,0.00,,,0.00,meteohub,2013-05-05 05:56:00,